User: anonymous   Login
Location: Asheville, NC
(35.6000°N, 82.5500°W)
Time: 20:47:59
(UTC-04:00)
Language:

HO-68 - Orbit

View from above orbital plane
View from above orbital plane
View from above satellite
View from above satellite

Ground track
Ground track

The orbit data is extracted from the following two-line orbital elements,

1 36122U 09072B   18197.95846402 -.00000067 +00000-0 -65720-4 0  9995
2 36122 100.0743 211.1998 0008058 047.9862 312.1937 13.16345409412468
Epoch (UTC): 16 July 2018 23:00:11
Eccentricity: 0.0008058
inclination: 100.0743°
perigee height: 1192 km
apogee height: 1205 km
right ascension of ascending node: 211.1998°
argument of perigee: 47.9862°
revolutions per day: 13.16345409
mean anomaly at epoch: 312.1937°
orbit number at epoch: 41246

The dashed part of the orbit path shows where the satellite is in the earth's shadow,  

DLR